Location: Heisler
(52.6701°N, 112.2239°W)
Time: 13:31:45
(UTC+00:00)

Envisat - Pass Details

Date: 07 December 2021
Orbit: 764 x 766 km, 98.2° (Epoch: 26 January)

Event Time Altitude Azimuth Distance (km) Brightness Sun altitude
Rises 23:56:32 0° 181° (S) 3,222 6.7 -6.1°
Reaches altitude 10° 23:58:54 10° 187° (S) 2,300 6.0 -6.4°
Maximum altitude 00:03:48 47° 261° (W) 1,008 4.2 -7.0°
Drops below altitude 10° 00:08:44 10° 336° (NNW) 2,317 5.5 -7.7°
Sets 00:11:08 0° 342° (NNW) 3,248 6.2 -8.0°
